Showing default

CARTOSAT 2F, 43111

Orbit data source: Space-Track

CARTOSAT 2F, 43111 is a payload satellite owned by ISRO (IN) in SSO that was launched on Fri, 12 Jan 2018 UTC via a PSLV-XL launch vehicle from the Sirharikota (SRI). Payload-class satellites include a variety of spacecraft equipped with specific instruments for various scientific and technological missions. These include communications satellites like Starlink; space stations such as the ISS; scientific satellites like the Hubble; Earth observation satellites from companies like Planet Labs, Umbra, and HawkEye 360; GPS; miniature CubeSats for education and research; and military/defense satellites.

Loading next visibility...
Identifier
43111, 2018-004A
Orbit
SSO
Last TLE update
10 hours ago
Origin
Manufacturer
ISRO
Mission
Operational Civil Imaging
Bus & Motor
IRS-2, AOCS
Mass
712 kg wet, 639 kg dry
Launch date (UTC)
2018-01-12 (7 years ago)
Launch vehicle
PSLV-XL
Launch site
Sirharikota (SRI)
Object type
Payload
Rocket body
Debris
Shape & HBR
Hex Cyl + 2 Pan, 8 m
Radar Cross Section
9.780 m², Large (>1 m²)

Expand to show TLE details & history

TLE from 10 hours ago
0 CARTOSAT 2F
1 43111U 18004A   25186.56708228  .00004208  34450-8  20025-3 0  9993
2 43111  97.4534 246.5426 0001906  68.3557 291.7880 15.19212198414703
Epoch: 2025-07-05T13:36Z
TLE epoch observation values (Epoch: 2025-07-05T13:36:35.908Z)
Latitude
-0.0001°
Longitude
118.58972°
Altitude
510.821 km
Speed
7.609 km/s
True Right ascension
16h 26m 10s
True Declination
0° 00' 00"
Sunlit
Object was in full shadow at epoch
Visualization orbit readout
Latitude
18.7348°
Longitude
-58.46225°
Altitude
510.869 km
Speed
7.61 km/s
Apparent Right ascension
02h 35m 27s
Apparent Declination
-11° 28' 49"
Sunlit
Object is in daylight
Visualization observer readout
Local Sidereal Time
11:44:29
Azimuth
294.931° NW
Elevation
-42.823°
Doppler factor
1
Orbital elements
Apogee altitude
506.501 km
Perigee altitude
503.877 km
Semi-major axis
6,883.326 km
Eccentricity
0.00019
Inclination
97.4534°
RAAN
246.5426°
Arg. of periapsis
68.3557°
True anomaly
Unknown
Mean anomaly
291.788°
Eccentric anomaly
Unknown
Mean motion
3.80054 °/min
Orbital period
94.72 mins
BSTAR
0.00020025
Loading maneuver chart data...
Loading SW <> Apogee altitude chart data...
Loading historical data...
Loading historical data...
Loading historical data...
Loading historical data...
Loading historical data...
Loading historical data...
Loading historical data...

CARTOSAT 2F Visibility forecast

Observer location: undefined°, undefined°

Span
Click to sort rows by Start time (UTC) header in descending order
Start Az.
Max El. time (UTC)
Max El. Az.
Max El.
End time (UTC)
End Az.
6 mins2025-07-06 03:58:04.531Z160.684° S2025-07-06 04:01:04.531Z38.885° NE43.675°2025-07-06 04:04:04.531Z351.873° N
6 mins2025-07-06 17:03:04.531Z3.713° NNE2025-07-06 17:06:04.531Z239.447° WSW40.88°2025-07-06 17:09:04.531Z201.81° SSW
|